This demonstration page uses our WeatherBlox Daily Observations layout. Learn more.

Left ArrowRight Arrow

36.19886, -115.1175

Hourly Observations for December 29, 2020

Temp ( °F °C ) Dew Point ( °F °C ) Humidity (%) Winds ( mph kmh ) Pressure ( in mb ) Visibility ( mi km ) Precip ( " mm )
12:53 am 00:53 Mostly Cloudy 45 7.2 32 0 61 61 NW 9 15 29.96 1015 10 16.0934 0 0
1:53 am 01:53 Cloudy 43 6.1 32 0 65 65 Calm 29.98 1015 10 16.0934 0 0
2:53 am 02:53 Partly Cloudy 43 6.1 31 -0.6 63 63 NW 7 11 29.98 1015 10 16.0934 0 0
3:53 am 03:53 Partly Cloudy 42 5.6 32 0 68 68 NNW 12 19 29.99 1016 10 16.0934 0 0
4:53 am 04:53 Cloudy 44 6.7 33 0.6 65 65 NNW 10 17 30.02 1017 10 16.0934 0 0
5:53 am 05:53 Cloudy 44 6.7 33 0.6 65 65 NW 12 19 30.06 1018 10 16.0934 0 0
6:53 am 06:53 Cloudy 44 6.7 33 0.6 65 65 NW 10 17 30.09 1019 10 16.0934 0 0
7:53 am 07:53 Cloudy 45 7.2 33 0.6 63 63 WNW 7 11 30.11 1020 10 16.0934 0 0
8:53 am 08:53 Sunny 49 9.4 31 -0.6 50 50 NNW 13 20 30.14 1021 10 16.0934 0 0
9:53 am 09:53 Sunny 51 10.6 27 -2.8 39 39 NNW 14 22 30.16 1022 10 16.0934 0 0
10:53 am 10:53 Sunny 53 11.7 24 -4.4 32 32 NW 18 30 30.15 1021 10 16.0934 0 0
11:53 am 11:53 Sunny 54 12.2 21 -6.1 28 28 NNW 20 31 30.12 1020 10 16.0934 0 0
12:53 pm 12:53 Sunny 55 12.8 18 -7.8 23 23 NW 22 35 30.12 1020 10 16.0934 0 0
1:53 pm 13:53 Sunny 55 12.8 16 -8.9 21 21 NNW 18 30 30.12 1020 10 16.0934 0 0
2:53 pm 14:53 Sunny 56 13.3 15 -9.4 20 20 NNW 18 30 30.14 1021 10 16.0934 0 0
3:53 pm 15:53 Sunny 55 12.8 16 -8.9 21 21 NW 18 30 30.15 1021 10 16.0934 0 0
4:53 pm 16:53 Clear 53 11.7 17 -8.3 24 24 NNW 10 17 30.17 1022 10 16.0934 0 0
5:53 pm 17:53 Clear 51 10.6 18 -7.8 27 27 NNW 16 26 30.2 1023 10 16.0934 0 0
6:53 pm 18:53 Clear 51 10.6 13 -10.6 22 22 NNW 14 22 30.2 1023 10 16.0934 0 0
7:53 pm 19:53 Clear 49 9.4 12 -11.1 22 22 NNW 13 20 30.24 1024 10 16.0934 0 0
8:53 pm 20:53 Clear 47 8.3 13 -10.6 25 25 NNW 16 26 30.25 1025 10 16.0934 0 0
9:53 pm 21:53 Clear 47 8.3 13 -10.6 25 25 NNW 17 28 30.26 1025 10 16.0934 0 0
10:53 pm 22:53 Clear 46 7.8 12 -11.1 25 25 NNW 16 26 30.26 1025 10 16.0934 0 0
11:53 pm 23:53 Clear 45 7.2 14 -10 29 29 NNW 18 30 30.26 1025 10 16.0934 0 0

Powered by AerisWeather